Weather Roundup
Issued by NWS Corpus Christi, TX

Home | Current Version | Previous Version | Text Only | Print | Product List | Glossary On
Versions: 1 2 3 4 5 6 7 8 9 10 11 12 13 14 15 16 17 18 19 20 21 22 23 24 25 26 27 28 29 30 31 32 33 34 35 36 37 38 39 40 41 42 43 44 45 46 47 48 49 50
000
ASUS44 KCRP 191410
HRRCRP

SOUTH TEXAS REGIONAL WEATHER ROUNDUP
NATIONAL WEATHER SERVICE CORPUS CHRISTI TX
900 AM CDT TUE SEP 19 2017


TXZ229>244-191500-
...CORPUS CHRISTI AREA OBSERVATIONS...

CITY           SKY/WX    TMP DP  RH WIND       PRES   REMARKS
CORPUS CHRISTI MOSUNNY   82  79  90 S12       29.94R HX  92
NAS CORPUS CHR MOSUNNY   87  80  79 S13       29.94R HX 103
ROCKPORT       SUNNY     85  76  74 S10       29.94R HX  94
KINGSVILLE ARP FAIR      80  80 100 SE6       29.94R FOG     HX  90
KINGSVILLE NAS PTSUNNY   81  80  97 SE6       29.94R HX  91
ALICE          PTSUNNY   81  77  88 S10       29.94R
$$

...VICTORIA AREA OBSERVATIONS...

CITY           SKY/WX    TMP DP  RH WIND       PRES   REMARKS
PORT LAVACA    SUNNY     82  76  84 S8        29.96R
VICTORIA       MOSUNNY   81  77  88 SE10      29.96R
BEEVILLE       FAIR      75  75 100 SE3       29.95S FOG
PLEASANTON     CLOUDY    79  75  87 S6        29.95R
SAN ANTONIO    PTSUNNY   80  73  79 S12       29.97R
$$

...LAREDO AREA OBSERVATIONS...

CITY           SKY/WX    TMP DP  RH WIND       PRES   REMARKS
LAREDO         MOSUNNY   83  74  74 SE20      29.92R
COTULLA        MOSUNNY   80  73  79 SE9       29.93R
DEL RIO        MOSUNNY   79  72  79 E12       29.92R
MCALLEN        SUNNY     83  77  82 SE13      29.92R HX  92
HEBBRONVILLE   NOT AVBL
$$

...OTHER TEXAS OBSERVATIONS...

CITY           SKY/WX    TMP DP  RH WIND       PRES   REMARKS
BROWNSVILLE    SUNNY     82  80  94 SE9       29.93R HX  94
HOUSTON        MOSUNNY   81  78  91 S5        29.97R
COL. STATION   CLOUDY    79  77  94 S9        29.97R
AUSTIN         CLOUDY    80  77  90 S8        29.96R
WACO           PTSUNNY   79  75  87 S15       29.94S
FORT WORTH     PTSUNNY   79  73  82 S16       29.91S
WICHITA FALLS  MOSUNNY   78  71  79 S13       29.88R
LUBBOCK        MOSUNNY   76  61  59 SW16G24   29.94R
EL PASO        MOSUNNY   76  55  48 S8        30.04R
$$

...MARINE OBSERVATIONS...

STATION/POSITION TIME  SKY/WX   TEMP    WIND        PRES    VSBY  WAVE   SWELL
                                AIR SEA DIR/SP/G                  HT/PER HT/PER
                 (UTC)          (F)     (DEG/KT/KT) (MB)    (MI)  (FT/S) (FT/S)
PORT ARANSAS     NOT AVBL
BUOY 90 E PORT A 1350            83 82  130/  8/  8 1014.6R         2/ 5   2/ 5
BUOY 200 E PT IS 1350            84 84  140/ 10/ 12 1014.7R         2/ 4
BUOY 15 E GALVES 1250            82 82  190/ 10/ 10 1014.4          2/ 4   2/ 5
$$



USA.gov is the U.S. government's official web portal to all federal, state and local government web resources and services.